Location: Nied?wied?
(53.3665°N, 14.8184°E)
Time: 17:58:22
(UTC+00:00)

ISS - Pass Details

Date: 15 May 2021
Orbit: 417 x 422 km, 51.6° (Epoch: 14 June)

Event Time Altitude Azimuth Distance (km) Brightness Sun altitude
Rises 01:38:53 0° 279° (W) 2,375 -0.2 -9.8°
Reaches altitude 10° 01:41:14 10° 266° (W) 1,509 -1.3 -9.6°
Maximum altitude 01:44:01 24° 210° (SSW) 918 -2.6 -9.3°
Drops below altitude 10° 01:46:49 10° 154° (SSE) 1,505 -1.2 -9.0°
Sets 01:49:09 0° 140° (SE) 2,367 0.0 -8.8°
